Location: Goettingen
(51.5300°N, 9.9433°E)
Time: 16:04:21
(UTC+02:00)

ISS - Pass Details

Date: 06 September 2024
Orbit: 414 x 425 km, 51.6° (Epoch: 10 September)

Event Time Altitude Azimuth Distance (km) Brightness Sun altitude
Exits shadow 03:51:26 17° 112° (ESE) 1,153 -1.4 -23.6°
Drops below altitude 10° 03:52:21 10° 110° (ESE) 1,519 -0.7 -23.5°
Sets 03:54:27 0° 109° (ESE) 2,384 0.4 -23.3°
